Location: Agadir-Ikarkaouin
(31.1503°N, 9.0246°W)
Time: 04:11:09
(UTC+00:00)

Cosmos 2298 Rocket - Pass Details

Date: 18 September 2020
Orbit: 776 x 783 km, 74.0° (Epoch: 23 October)

Event Time Altitude Azimuth Distance (km) Brightness Sun altitude
Rises 19:51:53 0° 188° (S) 3,252 7.2 -16.6°
Reaches altitude 10° 19:54:17 10° 185° (S) 2,328 6.4 -17.1°
Maximum altitude 19:59:31 67° 104° (ESE) 846 3.9 -18.2°
Drops below altitude 10° 20:04:48 10° 22° (NNE) 2,341 6.4 -19.3°
Sets 20:07:12 0° 20° (NNE) 3,272 7.2 -19.8°
